Regional Weather Roundup
Issued by NWS

Current Version | Previous Version | Text Only | Print | Product List | Glossary Off
Versions: 1 2 3 4 5 6 7 8 9 10 11 12 13 14 15 16 17 18 19 20 21 22 23 24 25 26 27 28 29 30 31 32 33 34 35 36 37 38 39 40 41 42 43 44 45
000 ASUS45 KCYS 201410 RWRWY WYOMING REGIONAL WEATHER ROUNDUP NATIONAL WEATHER SERVICE CHEYENNE WY 800 AM MDT FRI MAY 20 2022 NOTE: "FAIR" INDICATES FEW OR NO CLOUDS BELOW 12,000 FEET WITH NO SIGNIFICANT WEATHER AND/OR OBSTRUCTIONS TO VISIBILITY. WYZ001-201500- YELLOWSTONE NATIONAL PARK CITY SKY/WX TMP DP RH WIND PRES REMARKS LK YELLOWSTONE N/A 24 18 77 VRB6 29.92R WCI 17 W YELLOWSTONE NOT AVBL $$ WYZ002>013-054>058-071-098>099-201500- NORTHERN WYOMING CITY SKY/WX TMP DP RH WIND PRES REMARKS JACKSON FAIR 30 25 81 SW3 29.89R CODY CLOUDY 34 25 69 VRB6 29.93R WCI 29 GREYBULL LGT SNOW 35 32 88 NW22 29.91R FOG WCI 23 WORLAND PTSUNNY 37 25 61 NW21G33 29.90R WCI 26 SHERIDAN LGT SNOW 32 28 85 W28G35 29.90R FOG WCI 18 BUFFALO LGT SNOW 32 24 72 NW36G60 29.83R VSB 3/4 WCI 16 GILLETTE CLOUDY 33 27 78 NW24G37 29.79R WCI 20 HULETT LGT SNOW 32 28 86 NW13G21 29.76R WCI 22 NEWCASTLE CLOUDY 32 27 80 NW25 29.76R WCI 19 $$ WYZ014>020-022>026-101>103-201500- CENTRAL WYOMING CITY SKY/WX TMP DP RH WIND PRES REMARKS BIG PINEY PTSUNNY 29 16 58 NE13 29.84R WCI 19 PINEDALE FAIR 30 18 59 NW8 29.84R WCI 23 DUBOIS CLOUDY 27 19 74 NE3G18 29.86R LANDER CLOUDY 33 23 66 N12 29.89R WCI 24 RIVERTON CLOUDY 33 22 63 N23G33 29.87R WCI 21 CASPER CLOUDY 31 25 78 N14G22 29.81R WCI 21 DOUGLAS CLOUDY 34 27 75 N22G35 29.80R WCI 22 $$ WYZ021-027>030-104>119-201500- SOUTHERN WYOMING CITY SKY/WX TMP DP RH WIND PRES REMARKS EVANSTON FAIR 32 12 43 NW8 29.86R WCI 25 KEMMERER FAIR 28 18 64 N20 29.84R WCI 15 ROCK SPRINGS PTSUNNY 30 12 47 W7 29.85R WCI 23 DIXON CLOUDY 32 29 87 E14 29.86R WCI 22 RAWLINS FLURRIES 32 24 72 NW9 29.81R WCI 24 SARATOGA CLOUDY 30 25 80 SW8 29.81R WCI 23 LARAMIE CLOUDY 28 24 85 W8 29.76R WCI 20 CHEYENNE LGT SNOW 32 29 88 N10 29.77S FOG WCI 24 TORRINGTON PTSUNNY 41 32 70 NW15 29.74R PINE BLUFFS LGT SNOW 32 32 100 W12 29.80R WCI 23 $$

USA.gov is the U.S. government's official web portal to all federal, state and local government web resources and services.